This demonstration page uses our WeatherBlox Daily Observations layout. Learn more.

Left ArrowRight Arrow

38.20091, -84.87328

Hourly Observations for July 17, 2015

Temp ( °F °C ) Dew Point ( °F °C ) Humidity (%) Winds ( mph kmh ) Pressure ( in mb ) Visibility ( mi km ) Precip ( " mm )
12:11 am 00:11 Clear with Mist and Fog 71 21.7 67 19.4 87 87 Calm 29.94 1014 3 5 0.00 0.00
12:53 am 00:53 Clear 70 21.1 67 19.4 90 90 Calm 29.96 1014 10 16 0.00 0.00
1:53 am 01:53 Clear 70 21.1 66 18.9 87 87 S 3 6 29.95 1014 10 16 0.00 0.00
2:53 am 02:53 Clear 69 20.6 66 18.9 90 90 Calm 29.95 1014 10 16 0.00 0.00
3:53 am 03:53 Clear 70 21.1 66 18.9 87 87 Calm 29.94 1014 10 16 0.00 0.00
4:53 am 04:53 Clear 69 20.6 65 18.3 87 87 Calm 29.93 1014 10 16 0.00 0.00
5:53 am 05:53 Clear 68 20 65 18.3 90 90 Calm 29.94 1014 10 16 0.00 0.00
6:53 am 06:53 Sunny 69 20.6 66 18.9 90 90 S 5 7 29.95 1014 10 16 0.00 0.00
7:53 am 07:53 Partly Cloudy 73 22.8 67 19.4 81 81 SSW 8 13 29.95 1014 10 16 0.00 0.00
8:53 am 08:53 Sunny 77 25 69 20.6 77 77 SSW 9 15 29.95 1014 10 16 0.00 0.00
9:53 am 09:53 Mostly Sunny 80 26.7 68 20 67 67 SW 12 19 29.95 1014 10 16 0.00 0.00
10:53 am 10:53 Cloudy 83 28.3 70 21.1 65 65 S 12 19 29.94 1014 10 16 0.00 0.00
11:53 am 11:53 Mostly Sunny 84 28.9 71 21.7 65 65 S 13 20 29.94 1014 10 16 0.00 0.00
12:53 pm 12:53 Sunny 85 29.4 73 22.8 68 68 SW 10 17 29.94 1014 10 16 0.00 0.00
1:53 pm 13:53 Partly Cloudy 87 30.6 73 22.8 63 63 SSW 14 22 29.94 1014 10 16 0.00 0.00
2:53 pm 14:53 Mostly Sunny 89 31.7 73 22.8 59 59 SSW 12 19 29.93 1013 10 16 0.00 0.00
3:53 pm 15:53 Partly Cloudy 90 32.2 73 22.8 58 58 S 12 19 29.91 1013 10 16 0.00 0.00
4:53 pm 16:53 Mostly Sunny 88 31.1 73 22.8 61 61 SW 10 17 29.90 1013 10 16 0.00 0.00
5:53 pm 17:53 Mostly Sunny 87 30.6 73 22.8 63 63 SW 9 15 29.90 1013 10 16 0.00 0.00
6:53 pm 18:53 Partly Cloudy 86 30 74 23.3 67 67 SSW 7 11 29.89 1012 10 16 0.00 0.00
7:53 pm 19:53 Cloudy 85 29.4 74 23.3 70 70 S 7 11 29.89 1012 10 16 0.00 0.00
8:53 pm 20:53 Mostly Cloudy 84 28.9 73 22.8 70 70 Calm 29.91 1013 10 16 0.00 0.00
9:40 pm 21:40 Cloudy with Nearby Thunderstorms 78 25.6 67 19.4 69 69 NNE 15 24 29.94 1014 10 16 0.00 0.00
9:53 pm 21:53 Mostly Cloudy with Nearby Thunderstorms 76 24.4 66 18.9 72 72 NE 10 17 29.94 1014 10 16 0.00 0.00
10:12 pm 22:12 Mostly Cloudy 75 23.9 66 18.9 74 74 ENE 8 13 29.94 1014 10 16 0.00 0.00
10:36 pm 22:36 Mostly Cloudy with Nearby Thunderstorms 74 23.3 65 18.3 74 74 E 9 15 29.94 1014 10 16 0.00 0.00
10:53 pm 22:53 Partly Cloudy with Nearby Thunderstorms 74 23.3 65 18.3 74 74 ESE 8 13 29.93 1013 10 16 0.00 0.00
11:08 pm 23:08 Mostly Cloudy with Thunderstorms 74 23.3 65 18.3 74 74 ESE 13 20 29.94 1014 10 16 0.00 0.00
11:30 pm 23:30 Cloudy with Strong Thunderstorms 72 22.2 67 19.4 84 84 NW 9 15 30.00 1016 2 3 0.19 4.83
11:33 pm 23:33 Cloudy with Strong Thunderstorms 72 22.2 68 20 87 87 NNW 14 22 30.00 1016 1 2 0.30 7.62
11:35 pm 23:35 Cloudy with Strong Thunderstorms 71 21.7 68 20 90 90 N 12 19 30.00 1016 1 1 0.39 9.91
11:42 pm 23:42 Cloudy with Strong Thunderstorms 71 21.7 69 20.6 94 94 N 9 15 30.00 1016 1 1 0.77 19.56
11:45 pm 23:45 Cloudy with Strong Thunderstorms 71 21.7 69 20.6 94 94 NNE 7 11 30.00 1016 1 1 0.83 21.08
11:53 pm 23:53 Cloudy with Strong Thunderstorms 71 21.7 69 20.6 94 94 NNE 7 11 30.00 1016 2 2 0.92 23.37
11:59 pm 23:59 Cloudy with Thunderstorms 71 21.7 69 20.6 94 94 NNE 6 9 30.00 1016 3 5 0.02 0.51

Powered by AerisWeather